Date,TemperatureHighF,TemperatureAvgF,TemperatureLowF,DewpointHighF,DewpointAvgF,DewpointLowF,HumidityHigh,HumidityAvg,HumidityLow,PressureMaxIn,PressureMinIn,WindSpeedMaxMPH,WindSpeedAvgMPH,GustSpeedMaxMPH,PrecipitationSumIn
2013-3-1,36,30,19,26,22,17,94,75,52,0.00,40.00,8,5,0,0.00
2013-3-2,30,26,19,21,18,13,96,73,55,0.00,40.00,15,7,0,0.00
2013-3-3,31,25,15,19,16,11,94,69,49,0.00,40.00,12,5,0,0.00
2013-3-4,34,26,10,17,15,9,94,64,44,0.00,40.00,6,4,0,0.00
2013-3-5,30,29,27,28,22,17,104,77,59,0.00,40.00,11,8,0,0.00
2013-3-6,36,30,26,31,27,26,103,91,69,0.00,40.00,11,8,0,0.14
2013-3-7,38,32,21,32,27,20,98,80,55,0.00,40.00,9,6,0,0.00
2013-3-8,41,25,9,23,16,8,98,74,43,0.00,40.00,5,1,0,0.00
2013-3-9,41,35,24,32,26,20,83,69,57,0.00,40.00,11,7,0,0.00
2013-3-10,55,47,40,42,38,32,93,69,59,0.00,40.00,12,8,0,0.17
2013-3-11,53,43,34,48,40,33,102,93,61,0.00,40.00,11,8,0,0.15
2013-3-12,34,32,30,32,28,23,102,87,66,0.00,40.00,11,9,0,0.02
2013-3-13,29,27,24,28,20,12,99,76,54,0.00,40.00,17,12,0,0.01
2013-3-14,37,29,19,26,18,14,88,63,44,0.00,40.00,8,4,0,0.00
2013-3-15,41,33,29,35,31,26,102,92,74,0.00,40.00,7,4,0,0.02
2013-3-16,34,32,28,34,29,21,103,91,74,0.00,40.00,12,6,0,0.00
2013-3-17,35,30,28,23,20,18,76,66,53,0.00,40.00,11,8,0,0.00
2013-3-18,33,29,27,33,25,19,102,87,71,0.00,40.00,15,10,0,0.06
2013-3-19,31,25,20,24,16,14,81,68,53,0.00,40.00,19,15,0,0.00
2013-3-20,28,22,18,16,14,12,89,72,58,0.00,40.00,14,12,0,0.00
2013-3-21,27,23,17,20,18,16,99,81,66,0.00,40.00,12,8,0,0.00
2013-3-22,34,27,14,24,19,12,94,71,55,0.00,40.00,8,5,0,0.01
2013-3-23,35,29,20,24,23,20,100,78,62,0.00,40.00,7,2,0,0.00
2013-3-24,37,31,23,25,24,21,92,75,59,0.00,40.00,14,7,0,0.00
2013-3-25,36,32,29,27,25,22,79,73,66,0.00,40.00,14,10,0,0.00
2013-3-26,38,34,32,30,29,27,91,81,70,0.00,40.00,14,9,0,0.00
2013-3-27,43,36,30,32,27,20,98,71,41,0.00,40.00,14,7,0,0.00
2013-3-28,45,36,27,30,26,23,91,69,42,0.00,40.00,10,4,0,0.00
2013-3-29,48,31,20,26,22,18,100,74,32,0.00,40.00,10,2,0,0.00
2013-3-30,56,40,19,33,22,-100,99,62,33,0.00,40.00,8,2,0,0.00
2013-3-31,53,46,39,44,38,28,101,75,52,0.00,40.00,0,0,0,0.02